Location: Newark
(27.9675°N, 86.8869°E)
Time: 07:00:38
(UTC+00:00)

Altair - Pass Details

Date: 27 October 2019
Orbit: 1502 x 1682 km, 47.2° (Epoch: 11 November)

Event Time Altitude Azimuth Distance (km) Brightness Sun altitude
Rises 07:45:39 0° 310° (NW) 4,778 10.1 41.5°
Reaches altitude 10° 07:49:17 10° 320° (NW) 3,821 9.6 41.0°
Maximum altitude 07:57:41 31° 20° (NNE) 2,588 8.6 39.8°
Drops below altitude 10° 08:06:16 10° 79° (E) 3,922 9.4 38.6°
Sets 08:10:02 0° 90° (E) 4,922 9.8 38.0°
